Location: Chuathbaluk
(61.5726°N, 159.2454°W)
Time: 04:58:09
(UTC+00:00)

Transit 2A - Pass Details

Date: 03 December 2020
Orbit: 599 x 960 km, 66.7° (Epoch: 26 January)

Event Time Altitude Azimuth Distance (km) Brightness Sun altitude
Rises 03:11:29 0° 195° (SSW) 3,608 10.1 -10.9°
Reaches altitude 10° 03:14:15 10° 188° (S) 2,640 9.3 -11.2°
Maximum altitude 03:19:49 37° 123° (ESE) 1,360 7.0 -11.8°
Enters shadow 03:23:47 17° 65° (ENE) 2,062 7.5 -12.2°
Drops below altitude 10° 03:25:03 10° 58° (ENE) 2,472 - -12.4°
Sets 03:27:34 0° 51° (NE) 3,352 - -12.6°
